Theta_e
307 305 305 306 310 313 317 318 320 321 321 321 321 321 322 322 321 320 322 322 323 324 324 324 323 323 324 324 323 324 323 323 323 323 324 324 323 323 323 323 323 322 322 323 323 321 323 323 322 322 323 324 324 323 324 324 324 322 321 319 318 319 318 316 317 315 315 314 316 316 317 318 317 316 316 317 316 317 316 315 315 314 314 313 314
304 305 305 303 305 306 310 314 316 318 320 321 321 321 322 322 321 322 322 322 322 324 324 324 325 324 323 323 324 324 323 322 322 323 323 324 323 323 322 323 323 323 321 322 322 323 322 322 322 321 321 322 322 323 324 321 323 321 321 319 318 318 319 318 315 315 312 311 311 312 313 314 314 314 314 315 316 316 315 314 314 313 313 313 313
305 305 304 304 305 305 305 309 314 318 319 320 321 321 321 321 322 322 322 322 322 323 323 323 324 325 325 324 324 323 324 324 324 323 323 323 323 323 323 323 322 322 323 321 322 322 323 322 322 322 321 320 320 321 322 322 322 321 320 319 318 316 317 316 316 317 315 310 311 308 308 300 300 301 305 309 313 313 313 312 312 312 312 313 312
305 306 307 306 305 305 303 305 310 314 316 317 319 320 321 321 322 322 322 322 322 323 321 324 324 324 325 324 322 323 322 320 322 322 322 322 322 323 323 323 323 322 322 322 321 322 322 322 322 322 321 321 320 319 319 320 321 321 321 319 320 317 315 314 316 316 317 312 307 308 305 298 302 298 294 301 305 310 311 310 311 311 312 311 310
306 306 307 307 306 305 306 306 307 309 313 316 318 320 321 321 322 323 323 323 323 322 322 323 322 320 322 317 315 315 314 315 317 320 321 321 321 321 322 323 323 322 323 322 321 322 322 322 322 322 321 321 320 319 319 319 319 320 320 319 318 318 317 317 313 316 316 318 314 302 301 298 301 299 297 301 298 302 304 309 309 310 311 310 310
306 308 309 309 309 308 307 306 305 307 309 313 316 318 319 321 321 322 323 323 323 323 323 322 321 321 320 319 317 318 318 318 317 319 320 320 320 322 322 322 322 322 322 322 322 321 321 322 322 322 321 321 320 320 319 319 318 318 319 319 318 319 318 316 315 312 316 316 318 317 310 303 297 294 301 301 300 301 302 301 305 308 308 308 309
305 305 306 306 307 306 307 307 306 306 308 311 313 315 318 320 321 322 323 323 324 323 323 321 321 321 321 320 320 319 319 320 322 322 321 322 322 321 322 321 322 322 322 322 322 321 321 321 321 321 321 321 320 320 319 319 319 318 318 318 318 317 317 315 315 314 310 314 316 317 315 312 303 303 303 297 303 302 299 299 303 302 304 305 307
307 307 308 308 307 307 308 309 309 308 309 309 310 312 315 318 319 320 322 322 323 324 323 322 321 321 321 320 320 320 320 320 321 322 322 321 320 320 320 321 321 321 322 322 322 321 321 321 321 321 320 321 320 320 320 320 319 319 317 318 318 317 316 315 315 315 311 311 314 314 314 315 314 310 305 306 302 303 307 299 297 298 299 303 306
307 307 308 309 309 308 308 309 311 310 309 309 310 311 313 315 317 318 320 321 322 322 322 322 322 322 321 321 320 320 321 321 321 319 319 319 319 319 319 320 320 321 321 321 321 322 320 320 320 320 320 320 318 320 320 320 319 318 317 316 316 316 316 316 315 314 314 313 310 311 314 313 314 314 313 308 307 305 306 307 307 302 299 302 302
306 307 308 308 309 309 309 310 310 310 311 310 310 309 310 311 314 315 318 320 322 322 322 322 322 321 321 321 320 321 320 320 321 320 317 317 318 319 319 319 319 320 320 321 321 321 321 320 320 320 320 320 318 319 319 319 319 318 318 317 317 316 316 316 315 315 315 315 313 311 310 311 312 311 312 311 309 309 306 306 308 304 305 303 299
305 305 306 307 308 308 308 307 309 309 309 308 308 307 308 310 312 313 316 318 320 321 321 322 322 322 321 321 321 320 320 320 319 319 319 317 317 318 319 319 319 319 319 319 320 321 321 320 320 320 320 319 317 318 318 319 319 318 318 317 316 316 316 316 314 314 315 314 313 313 312 311 310 309 310 311 310 307 306 307 309 309 307 308 305
304 303 304 304 305 306 307 307 308 308 307 307 307 307 308 309 310 312 313 315 318 320 320 321 322 322 322 322 321 321 321 320 319 319 319 319 318 318 319 318 318 319 319 318 319 320 320 320 319 320 319 319 319 319 319 319 319 318 318 317 317 317 316 315 315 314 314 314 314 314 313 313 312 311 311 311 311 310 309 307 306 303 300 305 304
303 303 303 304 305 306 306 306 306 305 306 306 307 307 308 308 309 310 312 313 315 317 319 320 321 321 322 322 322 321 321 321 320 320 320 319 319 319 318 317 318 317 318 318 319 319 319 319 319 319 319 319 319 319 319 319 319 318 318 317 317 316 316 316 315 315 315 314 314 315 315 314 313 313 311 309 310 310 310 307 308 303 306 307 304
303 303 303 304 305 305 306 306 306 306 305 305 305 305 307 308 308 309 311 312 313 315 317 318 319 321 322 322 322 322 321 321 321 321 321 321 320 319 319 318 318 318 318 318 320 320 319 319 319 319 320 320 319 319 319 319 318 318 317 317 316 317 317 316 316 316 316 315 316 314 314 314 314 314 313 311 310 308 308 308 307 302 300 305 305
301 301 303 304 305 305 305 306 306 304 303 303 302 304 305 306 307 307 309 310 311 313 315 316 318 320 321 322 322 322 322 321 321 321 321 321 321 320 320 319 319 319 319 320 320 319 319 319 319 319 319 319 319 318 318 318 318 318 317 317 317 317 317 316 316 316 315 315 315 315 314 314 314 314 314 313 312 311 310 309 306 305 305 302 303
300 300 301 302 303 303 303 304 303 301 301 302 303 305 305 306 307 308 308 309 310 311 313 315 316 318 320 320 321 321 320 321 321 320 321 322 321 321 320 320 320 320 319 319 319 319 319 319 318 318 319 319 319 319 318 318 318 318 317 317 316 317 317 316 316 316 315 315 315 315 315 314 315 314 314 314 314 313 312 311 308 308 305 304 304
299 299 300 301 301 301 302 300 300 301 301 303 304 304 305 306 306 307 308 308 309 310 312 314 315 316 318 319 320 321 321 320 321 321 321 321 321 321 321 321 320 320 320 319 319 319 319 319 318 318 318 319 319 318 318 318 318 317 317 317 316 317 316 316 316 315 316 316 315 315 315 315 315 315 314 314 315 314 314 313 312 310 310 306 304
300 300 301 301 300 299 299 299 299 301 303 303 303 304 304 305 305 306 306 307 308 309 310 311 313 314 316 318 319 320 321 321 321 321 322 321 321 321 321 320 320 320 320 320 319 318 318 315 318 318 318 318 318 318 318 318 317 317 317 317 317 317 316 316 316 316 316 316 315 315 315 314 315 315 315 315 314 314 314 313 313 313 312 309 308
298 298 298 298 298 299 300 301 303 301 301 302 304 304 304 304 305 305 306 307 308 309 310 310 311 313 316 316 318 319 320 321 322 321 321 321 320 321 320 321 321 320 319 319 318 318 318 317 317 317 318 317 318 318 318 317 317 317 316 316 317 317 316 315 316 315 316 315 314 314 315 315 315 315 315 315 314 314 314 314 313 314 312 312 310
297 295 296 298 300 301 301 301 300 301 301 301 301 301 301 303 303 303 304 305 306 308 309 309 310 311 313 315 316 318 319 320 321 321 321 320 321 321 320 320 320 320 320 319 318 318 317 317 317 317 317 317 317 317 317 317 317 317 317 316 316 316 316 315 316 316 316 315 315 314 314 315 316 316 315 315 315 314 314 314 314 313 313 313 312
295 295 297 299 300 300 299 297 298 298 297 298 300 301 302 302 302 303 303 304 304 306 307 308 309 310 310 311 313 315 317 319 319 320 320 320 321 319 320 321 320 319 319 319 318 318 318 317 317 316 317 317 316 316 317 317 316 316 317 317 316 316 315 316 315 315 316 316 315 315 315 316 316 315 315 315 315 315 314 314 314 314 313 313 312
296 297 297 298 297 297 296 296 295 294 298 299 300 300 301 302 303 302 302 303 304 305 306 307 308 309 309 310 311 313 315 317 317 318 318 319 320 320 320 319 319 320 319 319 318 318 318 318 317 317 316 317 317 317 316 316 316 316 316 316 316 315 315 315 315 315 316 316 316 315 315 316 316 315 315 315 315 315 315 314 313 313 313 313 313
295 294 294 294 294 295 296 295 296 296 297 298 298 299 301 301 302 302 302 303 304 305 306 306 306 307 308 309 309 310 312 313 314 316 316 318 318 319 319 319 319 319 318 319 319 318 318 317 317 317 317 316 316 316 316 316 316 315 315 315 316 315 315 314 315 315 315 316 315 315 315 316 316 315 314 315 315 315 315 314 313 313 312 313 313
293 293 293 294 293 292 292 295 297 298 297 298 299 299 300 300 300 300 300 301 302 303 304 304 305 305 306 306 307 308 308 310 311 313 314 315 317 317 317 317 318 318 318 317 318 318 317 317 316 316 316 316 316 316 315 315 316 315 315 315 315 315 315 315 315 315 315 315 315 314 314 315 315 314 314 314 314 314 314 313 312 312 312 312 312
291 292 293 293 292 293 296 296 297 297 297 297 298 298 298 298 297 298 298 299 300 300 300 301 300 302 301 302 303 303 304 306 308 310 311 312 311 311 310 314 315 315 316 315 314 315 316 316 316 315 315 315 315 315 315 315 315 315 315 315 315 314 314 314 314 315 309 315 314 314 314 314 314 313 313 313 313 312 313 312 312 312 312 312 312
292 292 292 293 294 294 294 294 296 296 296 297 297 296 296 295 295 294 295 295 295 292 294 295 295 296 298 296 297 296 300 303 304 305 306 305 305 305 309 310 311 315 314 314 314 312 313 315 315 315 315 315 315 314 314 315 315 314 314 314 314 313 313 313 313 314 314 314 314 314 314 314 314 313 313 313 313 312 312 311 311 311 312 312 311
294 294 294 293 295 297 298 297 295 295 293 296 295 296 293 292 293 292 290 290 291 288 289 289 290 290 292 292 292 293 294 295 296 298 298 299 301 302 303 307 305 309 311 311 310 311 310 312 314 314 314 314 314 313 314 314 314 314 314 313 313 313 312 313 313 313 314 314 314 314 314 314 314 314 313 313 312 312 312 311 311 311 311 311 311
294 294 295 296 296 296 296 297 297 298 297 295 295 293 293 291 292 291 288 287 289 287 287 287 288 289 290 291 290 289 290 291 292 292 294 295 296 297 300 301 299 305 307 308 309 310 309 308 311 312 313 313 312 312 312 313 313 313 312 312 312 311 312 312 312 313 313 313 313 314 314 314 314 314 314 313 313 312 312 311 312 311 311 311 311
293 294 295 295 295 296 296 297 298 297 297 297 297 297 293 291 289 288 287 287 286 286 286 286 286 287 288 288 286 286 288 288 288 289 290 292 294 294 295 298 298 302 304 305 307 308 307 307 307 308 309 309 310 311 311 310 311 311 312 312 313 312 312 312 312 312 313 313 313 313 313 314 311 304 303 305 306 307 313 311 311 311 310 310 310
294 295 295 295 296 296 296 297 297 298 299 299 298 297 295 294 294 290 287 287 285 286 286 286 286 287 286 286 285 285 286 286 287 288 289 289 290 291 292 294 297 298 300 300 301 303 305 306 306 305 305 307 308 310 304 303 304 310 312 313 313 312 312 311 311 311 311 312 312 313 312 302 300 299 299 299 300 300 302 310 313 312 310 310 309
294 295 296 297 298 299 299 299 298 298 299 299 299 297 293 291 290 290 289 287 285 286 286 286 287 286 285 285 285 286 286 286 287 286 286 287 289 290 290 291 293 295 296 297 298 301 301 301 303 304 304 304 306 307 301 302 302 303 309 313 313 313 312 311 311 310 310 310 311 312 312 305 300 298 299 298 299 300 299 299 301 303 304 311 310
295 296 297 298 298 298 298 298 298 298 298 298 297 295 291 292 291 288 287 285 284 285 286 285 285 284 284 285 285 285 286 288 288 289 289 289 290 290 292 293 294 294 295 293 296 299 301 299 300 300 301 302 302 299 301 302 302 302 301 309 313 313 312 312 311 310 310 310 310 310 311 311 311 309 309 306 300 298 298 299 299 299 300 300 302
294 295 296 296 297 297 298 298 298 298 298 297 295 292 292 292 289 287 284 284 285 284 285 286 286 285 285 284 284 285 287 287 288 289 290 290 290 292 292 293 294 294 293 296 299 299 300 299 299 301 301 301 301 299 298 299 299 300 300 301 310 312 312 311 310 310 310 310 310 309 309 310 312 299 301 308 309 306 297 296 297 297 297 298 300
293 293 294 295 297 297 297 297 297 297 294 293 289 289 290 285 284 284 283 284 284 284 284 284 284 284 284 284 284 284 284 286 287 288 288 289 290 292 292 292 292 292 294 296 295 296 297 297 298 299 299 299 299 297 297 297 297 298 299 299 306 309 310 310 310 310 309 309 309 309 309 308 309 308 308 309 310 310 309 304 302 301 303 300 296
292 292 292 294 295 296 296 295 295 294 292 289 289 287 286 285 284 284 283 284 284 283 283 283 283 283 283 283 284 284 285 285 284 286 288 289 289 290 290 291 291 294 295 296 296 295 297 297 297 298 299 299 301 296 296 297 297 297 298 298 304 306 306 307 308 308 308 308 308 309 308 308 306 306 306 305 307 308 308 308 307 305 305 305 305
293 293 293 293 292 293 294 294 292 288 289 285 287 284 284 286 284 284 284 283 283 283 282 282 283 283 283 283 283 283 284 284 284 285 286 287 288 288 290 289 289 290 291 291 292 293 295 295 295 295 295 296 295 294 294 295 295 297 296 298 299 300 301 300 301 302 302 302 301 301 301 300 300 301 299 298 299 303 305 302 300 301 302 302 303
294 293 293 292 291 290 291 288 287 284 284 284 282 282 283 284 283 282 283 283 282 282 281 282 282 283 283 283 283 283 284 284 284 284 284 285 286 287 287 287 289 288 289 289 290 290 290 291 290 292 293 294 292 290 292 293 293 295 294 294 295 296 296 296 297 298 299 298 299 297 298 298 299 299 296 297 297 295 299 298 299 299 301 301 299
290 289 289 289 287 286 284 283 284 283 281 281 281 282 282 282 282 282 281 282 282 282 282 282 283 282 283 283 282 283 283 283 283 284 283 283 283 284 285 286 288 288 288 288 289 289 289 289 289 289 289 290 291 289 290 291 292 293 292 293 293 294 294 294 294 296 296 296 294 290 292 295 296 297 295 295 296 295 296 296 296 294 293 294 295
285 286 287 286 284 282 282 281 282 282 282 281 281 283 282 282 281 281 281 281 282 282 282 282 283 282 283 282 282 282 282 283 283 283 283 283 283 283 283 285 287 287 287 287 287 287 287 287 287 287 286 288 288 287 289 290 291 292 291 291 291 291 292 292 293 292 292 293 293 292 290 292 293 293 294 295 295 294 295 294 295 294 294 294 296
283 283 282 282 282 282 281 281 281 281 282 281 281 281 281 281 281 281 281 282 282 282 282 282 281 281 282 282 282 282 282 282 282 282 283 283 283 284 284 284 285 286 285 285 286 286 286 286 285 285 286 287 287 287 287 289 289 290 291 289 289 290 289 289 289 290 290 291 291 291 290 293 294 294 294 294 294 294 294 294 293 293 293 293 293
282 282 283 281 281 281 281 282 282 282 281 281 281 281 281 281 281 281 282 282 282 281 282 282 282 282 282 282 282 282 282 282 281 282 283 283 283 283 283 283 283 282 282 282 282 283 284 283 282 282 283 284 285 285 285 287 288 289 290 290 289 289 289 289 289 289 289 290 290 290 290 291 293 293 293 293 293 293 292 292 292 291 291 291 291
282 282 281 281 280 281 281 282 281 282 282 282 282 282 282 281 282 282 282 282 282 281 281 281 281 282 282 282 282 282 281 281 280 281 282 283 282 283 283 282 281 282 283 283 282 282 283 283 282 282 283 284 284 284 283 285 288 289 290 291 288 287 289 289 288 288 289 289 290 290 290 290 291 292 292 292 293 293 292 289 290 292 292 292 289
282 282 282 280 280 281 281 281 282 281 282 282 282 282 282 282 282 283 284 284 284 283 283 282 282 282 282 283 283 283 283 283 283 283 284 284 283 284 284 285 285 285 285 285 285 285 285 285 285 285 286 286 286 285 285 285 287 288 290 290 290 288 290 289 288 287 288 289 289 289 289 288 289 289 290 291 292 292 290 290 291 292 291 291 289
281 281 281 280 281 280 281 281 282 282 282 282 282 282 282 283 283 284 285 285 285 285 284 283 283 284 284 284 284 285 285 284 284 285 286 286 285 285 286 286 286 286 286 286 286 286 286 286 286 286 286 286 286 286 286 286 286 287 289 290 290 290 291 287 287 287 288 288 288 288 288 289 289 289 290 290 290 290 288 290 291 291 290 288 287
281 281 280 280 281 280 281 281 281 281 282 282 282 282 282 283 284 285 285 285 285 285 285 285 285 285 285 285 285 284 284 285 285 286 285 285 285 286 286 286 286 286 285 284 284 284 285 285 285 285 285 286 286 286 286 286 286 286 288 289 288 288 288 289 287 287 287 287 287 288 288 288 288 288 288 288 288 288 289 289 289 289 287 287 287
280 280 280 280 280 280 280 280 280 280 281 281 281 282 281 282 284 284 285 285 285 285 284 284 284 285 285 285 285 285 285 285 285 285 285 285 285 285 285 285 285 285 285 284 284 284 284 284 284 285 285 285 285 285 286 286 285 285 285 286 287 286 285 285 285 285 285 286 287 287 287 286 286 286 286 286 286 286 286 286 286 286 286 286 287
280 281 279 280 279 280 279 279 279 279 279 280 280 281 282 282 282 284 285 285 285 284 284 284 284 284 284 284 284 284 284 285 285 285 285 285 285 285 285 285 285 285 285 285 285 285 285 285 285 285 285 285 285 285 285 285 285 285 285 285 285 285 285 285 285 285 285 285 285 285 286 286 286 286 286 286 285 286 285 286 286 286 287 287 287
279 279 277 278 279 279 279 279 279 279 278 279 279 280 280 281 282 283 284 285 284 284 284 283 283 283 283 283 283 283 283 284 284 284 284 285 285 285 285 284 284 284 284 284 285 284 284 284 284 284 285 285 285 285 285 285 285 285 285 285 285 286 286 285 285 286 286 286 286 285 286 286 286 286 286 286 286 286 286 286 286 286 286 287 286
277 277 277 280 278 278 278 279 279 278 277 277 277 277 278 279 280 281 283 284 284 284 283 283 283 283 282 283 282 282 283 283 283 283 284 284 284 284 285 285 285 285 285 285 285 284 284 284 284 284 284 283 284 284 284 285 285 286 285 285 285 285 285 286 286 288 286 286 286 286 286 286 286 286 286 286 286 286 286 286 286 286 286 286 286
277 276 276 276 276 278 278 279 278 277 277 276 276 276 276 277 278 279 280 282 282 283 282 282 282 281 282 281 281 281 282 282 282 282 282 283 284 285 284 284 284 285 285 285 285 284 284 284 284 284 285 284 283 284 286 286 286 285 286 286 286 286 287 286 287 288 286 285 285 285 285 285 285 285 285 286 286 286 286 286 286 286 286 286 286
277 277 276 277 277 279 279 279 278 277 276 275 274 274 274 275 275 277 278 279 281 281 281 281 281 281 281 281 281 281 281 281 281 281 282 281 282 284 284 284 284 284 284 285 285 285 285 285 284 283 284 285 285 285 285 285 284 285 285 285 286 287 287 287 288 286 285 285 285 285 285 285 285 285 285 285 285 285 285 285 286 286 286 286 286
Wind_Speed
11 5 5 8 9 8 8 6 8 8 9 10 10 12 13 14 11 13 11 10 10 9 9 10 11 10 9 12 14 12 11 10 10 11 11 11 11 10 10 10 11 11 11 11 12 11 11 9 9 10 10 10 11 12 11 10 9 9 8 7 10 10 8 6 6 3 6 9 7 10 11 10 12 12 14 13 13 12 10 10 10 9 10 10 10
7 9 8 5 8 9 6 6 6 8 12 11 13 15 13 13 13 14 9 10 12 13 12 12 12 12 12 13 12 11 10 11 13 11 12 10 10 10 11 11 11 11 11 11 11 12 11 10 10 10 9 10 10 10 10 10 9 9 7 7 7 10 10 6 6 5 6 7 7 9 9 8 12 13 13 12 13 11 10 10 10 10 10 9 8
10 10 8 7 9 8 5 7 8 12 12 10 14 12 10 11 13 11 10 11 12 13 12 13 12 12 12 11 11 9 8 9 9 9 9 10 10 11 11 11 12 13 12 11 12 12 12 11 11 9 10 9 9 11 11 11 10 11 10 10 7 6 7 4 8 10 8 2 1 4 9 8 4 3 5 9 10 10 9 10 10 10 12 9 8
13 13 12 9 8 8 5 7 10 8 8 8 10 13 11 11 12 12 12 12 12 13 14 15 11 9 10 9 5 8 6 4 6 8 9 9 12 12 12 13 14 12 11 12 11 11 12 13 10 10 11 9 10 10 11 12 11 10 10 10 9 9 7 7 8 9 8 5 4 6 3 1 11 2 4 6 8 10 8 10 7 9 9 8 5
13 12 11 10 8 9 11 10 7 7 10 11 11 11 9 13 13 12 11 12 12 12 14 11 7 6 8 4 2 2 3 4 6 9 10 11 11 11 16 14 12 13 13 13 12 13 12 12 12 11 10 10 9 11 11 12 11 10 11 10 11 12 10 7 6 9 10 10 8 1 2 2 7 5 5 7 0 2 6 8 8 9 9 8 7
11 14 14 12 11 10 8 7 7 8 10 12 11 9 7 9 9 9 10 10 12 12 12 9 10 10 8 8 9 10 11 10 13 16 13 13 15 13 9 11 13 12 12 13 13 12 13 13 12 12 11 10 10 11 11 10 12 11 12 11 12 12 11 8 9 6 10 11 14 13 8 7 3 3 4 8 2 6 4 3 5 7 6 6 6
11 11 12 11 11 9 11 9 9 10 12 10 7 7 9 11 11 10 10 10 11 10 10 9 10 10 13 14 14 14 14 14 14 11 10 11 10 9 10 9 11 13 12 12 13 13 13 13 13 12 12 11 10 10 12 13 11 10 9 10 12 9 9 12 13 8 3 10 12 14 13 10 3 2 7 2 13 2 2 3 6 5 6 5 7
13 14 15 14 11 11 13 12 9 11 10 6 7 7 10 12 11 10 9 10 9 9 9 11 12 12 12 13 13 13 15 18 14 12 9 7 8 10 9 10 10 12 13 13 14 14 13 13 13 12 12 12 11 12 14 12 9 9 10 11 10 10 11 13 13 9 11 9 8 11 12 12 10 8 6 8 6 11 15 2 3 4 4 7 8
14 14 15 15 13 11 10 11 12 9 8 9 10 9 7 7 7 6 8 9 9 9 10 11 12 13 13 12 13 13 14 14 11 6 7 8 9 8 9 10 10 11 13 14 14 14 14 14 13 12 12 13 12 12 13 11 12 12 11 11 12 11 11 12 10 11 10 12 6 9 9 10 8 9 8 6 9 7 14 17 12 1 3 7 5
10 12 13 13 12 10 8 9 9 10 9 8 7 5 5 5 7 8 10 9 10 10 11 12 14 13 12 13 16 16 13 13 10 9 7 6 9 10 10 9 11 11 12 14 13 14 14 13 12 14 14 14 12 14 13 12 13 13 14 12 12 12 11 11 14 11 9 9 9 6 7 8 8 8 9 9 9 11 13 12 14 6 10 5 4
9 9 10 11 10 10 8 9 11 9 8 6 6 4 5 7 8 9 12 10 10 11 12 14 13 13 14 15 17 18 17 14 11 11 10 8 10 11 11 11 9 11 10 10 13 13 13 13 14 14 14 13 12 13 14 14 14 13 12 12 13 15 12 12 12 12 10 10 11 10 11 11 11 11 11 10 10 9 8 13 16 12 8 15 4
10 7 9 9 10 11 9 11 13 11 7 7 6 6 6 7 7 10 11 11 11 12 12 14 14 15 16 17 18 18 17 14 15 16 14 14 14 13 11 8 9 10 9 9 11 14 14 13 14 14 14 13 14 14 13 13 12 10 10 11 12 13 12 12 13 13 14 12 12 11 12 10 9 11 9 8 10 11 9 12 11 5 3 9 5
9 9 9 8 10 12 11 11 9 7 8 7 8 7 8 7 8 11 14 11 12 12 13 14 13 14 15 16 17 16 16 16 15 15 14 13 13 13 11 12 10 9 11 12 13 15 14 13 14 14 14 14 14 13 13 13 11 11 11 12 13 13 14 14 12 15 14 13 13 11 10 10 13 10 7 8 8 7 9 11 14 5 11 11 5
9 9 9 10 10 10 10 10 9 8 6 7 6 7 7 7 9 10 15 12 12 11 13 14 15 16 15 16 16 15 16 16 15 15 15 13 12 13 13 12 11 13 12 14 15 14 12 14 13 13 14 13 14 14 13 12 12 11 12 12 14 14 12 13 15 15 13 14 11 10 12 12 12 9 9 8 9 8 10 12 12 5 5 9 6
7 8 10 12 13 12 11 11 9 6 5 5 5 6 6 8 9 11 13 12 10 13 12 14 14 14 15 16 16 14 15 14 14 14 14 14 13 13 13 12 12 12 13 13 10 11 13 11 13 14 14 14 13 13 12 12 12 11 11 13 12 11 12 12 13 15 14 15 14 13 12 11 12 10 9 11 9 11 11 10 7 11 10 7 10
8 9 11 13 13 11 8 9 7 5 5 5 7 8 8 10 10 11 13 13 11 12 12 13 14 13 14 16 16 15 14 13 12 12 13 14 15 14 14 12 11 11 10 10 11 11 12 13 13 13 13 13 13 13 13 12 12 12 12 12 14 10 12 14 14 14 15 16 15 13 11 13 11 10 10 11 10 10 10 8 8 9 11 15 8
8 10 12 13 10 8 9 6 5 6 6 8 10 8 9 11 10 12 13 12 12 13 13 13 13 12 14 15 15 14 15 16 16 16 16 14 14 13 12 12 11 10 11 10 11 11 11 11 12 13 13 13 13 13 13 12 12 12 12 13 14 13 12 14 13 13 14 14 13 14 14 12 12 10 10 10 10 10 10 10 10 11 10 11 11
11 11 11 10 8 7 6 5 5 8 10 8 9 9 8 9 10 11 12 13 13 12 14 12 12 13 14 14 15 16 16 17 16 16 15 13 13 12 11 11 13 13 11 10 10 11 11 12 12 12 12 12 13 13 13 13 12 11 13 14 14 12 12 11 12 13 14 12 12 12 12 12 11 10 11 10 10 11 10 11 10 11 10 13 12
9 10 8 6 7 8 7 9 10 6 6 8 10 9 8 8 9 9 13 14 14 12 11 11 10 10 11 14 15 15 15 15 14 14 13 13 15 13 13 14 12 11 11 12 11 11 11 11 12 12 12 13 13 13 12 12 12 12 12 13 13 12 12 12 13 13 12 11 13 14 12 12 10 11 10 10 10 10 11 10 11 10 11 13 13
8 3 4 6 9 11 11 9 6 7 7 7 7 6 8 10 9 10 10 10 11 12 11 12 12 11 13 12 12 13 13 14 14 13 14 15 15 14 14 12 14 12 11 11 11 10 12 12 11 12 12 12 12 12 12 12 12 12 12 12 12 13 13 14 14 12 10 11 13 14 13 12 10 10 10 10 10 11 11 11 11 11 12 12 12
4 4 7 9 10 9 6 5 6 6 6 6 7 8 9 8 8 9 10 11 10 10 9 11 11 11 12 13 13 10 13 12 13 14 14 14 14 13 13 13 10 11 11 11 11 12 12 12 12 12 13 12 12 12 11 11 12 13 12 13 12 12 14 13 13 14 12 12 13 13 13 13 11 11 10 10 10 11 11 11 11 11 12 11 12
6 7 7 7 6 6 5 5 5 4 6 7 8 6 8 8 8 8 8 9 9 10 8 10 9 10 10 11 11 10 11 11 12 12 14 14 13 13 13 11 12 12 10 13 12 12 11 12 12 13 13 13 12 13 12 11 12 13 14 12 12 13 13 14 13 14 13 11 11 13 13 13 12 13 11 11 11 11 11 11 11 12 12 12 12
6 5 5 5 5 6 6 6 7 6 7 7 8 7 8 8 9 8 8 11 7 10 8 8 8 8 10 10 9 10 9 10 12 12 12 14 13 13 11 11 12 11 10 11 12 12 12 12 12 12 12 12 13 13 12 12 13 14 15 14 13 13 14 14 14 15 13 12 12 13 13 12 10 11 12 12 12 12 11 13 13 11 12 12 12
6 4 4 5 5 5 5 6 8 7 6 7 7 7 8 7 8 8 10 11 9 8 8 7 7 9 8 7 8 7 7 9 10 11 11 12 12 11 9 11 11 9 11 10 10 11 10 11 12 12 12 12 12 12 12 12 13 14 14 15 13 13 13 14 14 14 13 12 13 12 13 12 11 12 11 11 11 11 11 11 12 11 12 13 12
4 5 5 6 6 7 7 7 8 8 7 7 8 7 6 7 6 8 9 8 8 7 7 7 6 8 7 7 7 6 6 8 9 9 10 10 7 7 6 9 9 9 10 7 8 8 10 11 12 12 13 13 13 12 13 12 12 12 14 13 13 13 13 14 14 13 13 12 12 12 12 11 11 13 11 11 10 12 12 10 11 10 11 11 10
5 6 6 7 8 7 7 8 8 8 8 7 8 7 7 6 8 6 8 8 8 5 5 6 5 6 6 6 5 5 6 7 7 7 7 6 6 6 6 7 7 9 8 8 9 9 10 11 12 12 12 12 12 12 12 13 13 12 12 12 12 12 12 12 12 12 12 12 12 12 12 11 12 13 12 11 11 13 11 11 11 10 10 10 11
10 9 8 7 9 11 9 7 6 6 6 7 7 8 7 7 8 7 6 6 7 6 5 5 6 5 5 5 4 3 4 4 5 5 5 5 5 5 6 7 6 8 8 9 9 10 9 10 11 11 12 12 11 11 11 11 11 11 12 12 12 12 11 11 11 12 12 12 12 12 12 12 13 13 13 12 12 12 11 12 12 11 11 11 11
9 9 11 11 11 9 9 9 10 10 7 6 7 8 7 7 8 7 6 5 6 5 5 4 4 6 6 6 4 3 3 4 4 4 4 4 4 5 6 6 5 7 8 8 8 9 8 8 10 10 11 10 10 10 10 10 10 10 10 11 11 12 11 11 11 11 11 12 12 12 12 12 13 13 12 12 12 12 11 12 10 10 11 12 12
9 10 10 9 8 8 9 10 11 10 11 12 11 10 7 7 6 6 6 6 4 5 5 3 3 5 6 4 4 4 3 3 3 3 4 4 4 4 5 5 5 6 7 7 7 7 7 8 8 8 8 7 9 10 9 9 10 10 10 11 12 12 12 12 12 12 11 12 11 11 12 12 13 15 17 15 14 14 11 11 11 11 11 11 11
10 9 7 7 9 10 10 11 12 14 15 15 13 10 8 8 10 7 5 7 3 6 5 3 3 4 4 4 4 3 3 3 3 4 4 3 3 4 4 4 5 5 5 5 6 6 7 8 8 8 7 7 8 8 10 15 13 10 10 10 10 11 11 11 11 11 11 11 11 11 12 17 18 18 19 19 18 17 17 14 11 10 12 11 11
9 9 10 10 11 14 16 15 15 15 14 14 13 9 7 8 8 8 7 5 3 6 5 4 4 4 3 3 3 3 3 4 4 3 3 2 2 2 3 4 4 5 5 5 6 7 7 6 7 7 7 8 7 7 12 13 14 16 12 10 11 11 11 11 11 11 11 10 10 11 11 13 15 16 16 20 20 20 19 18 19 17 15 13 12
11 13 14 15 15 15 16 16 15 14 13 11 12 9 6 8 7 6 6 5 3 4 5 5 4 3 2 2 2 2 2 3 2 4 4 3 2 2 2 3 3 4 5 4 5 6 6 5 5 6 6 7 7 10 13 14 15 16 15 11 10 9 9 10 10 10 10 10 10 10 10 10 10 12 11 13 16 20 21 21 20 20 20 18 15
13 14 13 12 13 13 14 15 14 14 13 12 9 8 9 8 6 4 3 4 4 3 3 3 3 1 1 1 2 2 2 2 3 3 3 3 3 3 3 2 3 3 2 3 5 5 5 4 4 5 6 6 6 7 10 11 12 12 14 12 9 9 9 9 9 10 10 10 9 10 10 9 9 15 13 10 9 10 15 21 22 21 19 20 20
7 6 7 10 11 12 12 13 14 14 11 9 6 7 8 4 4 3 2 3 2 1 0 1 2 2 2 1 1 1 2 2 3 3 3 3 3 4 3 3 3 2 3 3 3 4 4 4 4 5 5 4 5 7 9 9 10 12 13 12 9 9 9 9 9 9 9 9 10 9 9 9 8 9 9 12 11 11 9 8 10 11 12 15 17
7 8 10 11 12 12 14 14 14 11 9 6 8 6 6 5 4 3 1 1 0 0 0 1 1 2 2 2 2 1 1 2 1 1 2 3 3 2 2 2 2 2 3 3 4 4 5 5 5 5 5 5 5 6 8 9 10 11 12 11 7 7 7 7 7 7 7 8 8 8 7 7 5 6 6 8 8 9 9 9 9 10 11 12 11
9 12 12 10 10 12 13 14 8 6 7 5 7 4 4 7 1 2 1 0 0 0 1 2 2 3 2 2 2 2 3 3 3 2 1 2 3 3 3 3 1 1 1 1 2 2 4 4 3 3 3 3 1 7 6 5 2 4 6 5 5 4 4 4 4 2 1 1 2 3 3 3 3 4 4 7 8 5 5 5 7 6 6 6 7
12 10 10 9 7 8 8 6 7 5 5 5 4 3 4 4 3 1 1 1 1 1 3 3 3 3 3 2 1 1 2 3 3 3 3 1 1 2 2 3 2 3 2 2 3 3 3 3 4 4 1 1 3 7 9 8 8 8 5 1 2 3 3 3 3 2 1 1 1 2 2 2 1 0 1 4 4 1 2 4 6 7 7 6 6
7 7 7 7 5 5 4 3 5 5 3 3 3 3 2 2 2 2 2 2 3 3 3 3 4 4 4 4 2 0 3 3 3 3 2 2 1 0 1 2 2 2 2 4 3 4 3 4 4 4 3 2 3 6 9 8 8 8 6 2 1 0 1 1 1 1 0 0 2 5 4 2 1 0 3 4 4 3 3 3 4 4 5 6 6
5 5 8 7 4 2 2 1 2 4 4 4 3 1 0 1 2 3 3 4 4 5 5 4 3 3 4 3 2 1 2 3 3 3 2 3 3 3 2 2 3 4 4 4 3 4 4 4 4 4 5 4 3 5 7 7 8 7 5 3 3 1 2 2 1 2 2 4 4 4 4 3 2 3 5 4 4 2 3 3 3 4 6 7 6
3 4 3 3 2 1 2 3 3 3 3 3 3 2 2 2 3 3 4 5 4 5 5 4 4 3 2 3 3 3 3 3 3 3 3 3 2 3 3 4 3 4 4 3 4 4 4 4 4 4 4 3 4 4 5 8 7 6 5 3 2 1 2 3 3 3 5 4 4 5 4 5 6 6 5 5 5 4 3 3 3 5 6 8 0
3 3 2 1 2 1 1 1 1 2 2 2 3 3 3 3 3 4 4 3 3 3 3 4 4 3 3 3 3 3 4 4 3 3 4 4 3 4 4 4 5 4 5 5 5 4 4 3 3 2 2 3 2 3 5 7 7 6 5 4 2 1 1 1 2 3 3 4 4 3 3 4 5 5 6 7 7 7 7 4 3 4 4 3 4
1 1 1 1 1 2 3 4 3 3 3 3 4 6 4 4 5 6 5 5 3 3 3 3 3 4 4 4 4 4 3 3 3 3 4 6 4 4 4 4 4 4 6 6 4 4 5 6 4 4 4 5 4 5 4 5 7 7 5 3 1 1 1 0 1 3 4 4 4 4 4 4 5 5 6 7 7 5 6 3 4 6 6 7 4
2 0 0 3 3 3 4 4 4 4 3 3 6 6 5 4 6 5 5 5 5 4 3 3 3 4 4 5 5 6 5 4 5 5 5 7 5 6 5 5 4 5 7 7 7 5 6 6 6 6 6 7 7 7 11 9 11 10 9 8 6 4 5 3 2 3 4 4 3 3 3 4 5 6 5 5 9 11 8 6 8 9 8 8 6
1 1 3 4 4 3 4 4 4 4 4 4 4 6 4 6 4 2 3 4 5 6 5 4 4 4 5 6 6 6 6 6 5 5 6 6 7 6 6 6 5 6 6 7 6 5 6 7 7 7 7 7 7 7 9 13 11 13 11 12 11 10 7 3 3 4 4 5 5 4 4 6 6 7 8 10 11 9 7 10 12 11 8 6 4
4 3 3 3 6 6 5 5 4 5 5 6 5 5 6 7 5 4 4 4 4 4 5 6 6 6 5 5 5 6 6 6 6 5 6 6 6 6 8 6 6 7 7 7 6 6 6 6 6 6 5 5 6 6 7 9 13 14 13 11 10 11 10 9 4 5 4 5 6 9 10 9 9 9 10 10 9 8 10 10 9 9 7 4 4
3 3 4 5 5 5 6 7 5 4 5 5 6 6 8 5 5 6 5 4 4 4 4 5 5 6 6 5 5 5 6 6 6 6 6 5 5 6 7 6 6 6 6 6 5 6 6 6 6 5 5 5 5 6 6 6 7 8 9 12 11 8 6 6 5 6 8 10 10 10 10 9 8 7 5 4 4 4 7 9 9 8 4 4 4
5 5 6 6 5 6 6 6 6 3 4 4 5 6 5 3 5 5 5 5 4 4 4 4 5 4 4 4 5 4 4 5 6 5 6 6 5 5 5 6 5 5 5 5 6 6 5 5 5 4 4 4 4 5 6 5 6 5 5 6 7 8 8 6 4 4 4 4 5 4 4 5 6 8 8 7 6 6 5 4 4 3 3 4 3
3 4 4 4 5 6 6 5 6 3 4 4 5 6 6 5 5 5 4 4 5 4 4 4 3 2 2 3 3 4 5 5 5 6 6 6 5 4 5 6 5 4 4 5 5 6 6 5 4 3 3 3 4 5 7 8 7 6 5 5 4 5 5 5 5 5 5 5 5 5 5 3 3 3 3 2 2 3 3 3 3 3 3 4 4
4 3 4 5 5 6 5 6 6 4 4 5 6 6 6 7 6 6 4 4 4 4 4 5 5 4 3 3 3 4 5 4 4 4 4 5 5 5 4 4 4 3 3 4 5 6 5 4 4 6 6 6 6 7 7 6 6 7 7 7 7 6 6 6 6 8 6 4 3 4 5 5 6 7 7 6 6 5 5 4 4 4 3 3 3
2 3 4 4 5 6 7 7 5 4 5 6 6 7 7 7 7 6 5 5 4 3 4 4 4 4 5 4 4 4 5 5 5 4 3 3 5 7 6 5 5 8 11 10 8 6 5 4 5 5 4 4 4 4 7 9 9 11 11 10 9 9 9 8 8 8 3 2 3 4 4 5 5 5 6 6 6 6 6 6 5 4 4 4 4
5 6 5 6 6 5 6 7 5 5 6 6 7 7 7 8 8 7 7 6 5 3 3 3 3 4 5 4 4 4 5 4 4 4 5 4 3 3 7 11 11 10 11 12 13 14 14 13 9 6 6 6 6 8 10 10 11 11 11 10 11 10 10 10 8 2 1 2 3 4 4 4 4 4 5 6 6 6 6 6 7 6 5 5 5
Wind_Direction
249 273 262 239 246 243 235 224 229 227 229 223 219 219 215 214 208 217 208 199 197 196 198 199 206 211 216 217 223 219 220 220 223 222 221 222 216 213 213 215 214 212 213 212 216 219 223 223 221 221 216 218 222 227 226 227 220 217 222 211 225 238 235 207 225 202 265 271 257 261 266 249 251 245 246 244 241 243 244 243 243 242 238 238 232
285 275 262 258 250 245 234 225 216 220 230 216 221 223 217 215 213 220 198 199 203 202 203 203 207 202 202 214 217 218 214 212 222 219 221 221 215 213 215 215 213 214 212 211 216 216 219 220 221 220 214 223 227 233 231 228 220 214 204 226 208 226 243 185 189 152 230 250 303 296 279 265 239 238 242 243 242 242 239 240 242 240 242 237 239
264 263 261 246 248 252 234 232 227 222 233 212 225 227 223 218 222 219 203 203 207 207 204 212 209 206 202 216 206 223 224 223 224 223 219 219 216 216 216 214 213 217 210 208 215 217 220 219 222 217 218 217 225 230 229 229 222 219 207 219 223 216 237 187 183 182 241 161 236 352 299 339 336 298 265 256 249 245 235 234 235 237 240 233 232
256 254 254 246 238 249 235 235 232 228 239 230 227 223 222 219 221 213 212 210 211 208 210 218 212 210 216 223 214 215 221 218 229 227 222 216 222 217 218 216 215 216 209 211 215 217 217 220 220 217 220 213 220 228 227 231 223 222 217 219 218 239 212 222 186 191 204 137 276 213 252 104 311 301 310 276 225 236 225 235 229 237 234 235 215
250 258 258 255 244 240 233 232 230 226 231 230 228 223 219 221 221 215 214 214 217 214 213 214 199 202 211 223 214 263 290 223 221 231 217 219 225 215 221 212 213 215 212 212 212 218 217 220 218 220 218 214 215 226 228 229 225 224 218 218 211 224 238 223 202 195 203 198 203 167 278 291 233 277 330 267 42 201 237 224 228 227 231 225 218
244 251 253 253 253 257 253 244 236 234 237 235 228 228 226 231 227 220 219 220 221 219 213 199 205 206 192 198 212 219 229 218 222 223 209 213 218 222 223 209 213 216 212 213 214 215 218 219 219 219 219 217 214 222 229 229 224 219 217 218 225 221 232 233 234 194 207 202 216 226 208 216 249 251 23 293 320 215 217 201 234 231 235 223 227
246 252 259 259 255 256 262 252 235 234 240 238 234 224 220 227 225 218 217 221 222 221 203 194 206 210 208 209 213 213 222 232 230 230 219 221 222 219 217 209 212 213 216 214 216 215 219 218 218 218 220 220 217 219 227 226 223 219 214 213 223 218 213 234 233 214 198 224 217 225 236 246 206 302 257 20 306 326 237 222 234 236 224 226 231
244 248 249 247 245 234 245 247 242 235 242 246 240 227 222 226 225 221 219 223 223 217 201 199 207 210 214 218 220 222 221 234 227 226 220 219 213 217 210 212 208 211 215 215 217 217 217 220 217 217 218 220 215 220 227 226 219 220 210 216 217 212 212 224 235 214 207 231 201 225 231 240 240 240 231 248 271 298 289 249 248 250 225 228 225
231 241 248 252 249 237 233 247 251 250 243 241 238 233 232 235 234 225 223 222 225 214 208 203 209 212 214 218 225 230 233 240 245 219 208 204 218 211 209 212 208 211 212 215 215 216 217 220 216 217 219 220 214 225 227 222 218 218 212 211 213 216 214 224 231 229 213 234 171 225 224 233 231 234 235 187 230 243 270 285 276 277 275 251 231
239 240 246 250 252 252 237 241 256 249 244 240 248 244 236 229 230 223 229 220 221 214 210 211 210 213 216 218 224 231 230 240 240 234 219 205 219 218 215 211 211 210 213 215 215 217 219 217 217 219 221 221 218 223 225 222 220 219 216 212 212 217 215 216 223 229 220 228 209 213 209 226 225 223 217 211 223 215 249 268 281 286 293 257 202
244 240 244 251 256 258 256 248 251 260 251 253 259 241 236 227 228 229 232 224 221 219 210 215 212 210 217 220 223 229 231 232 234 237 226 217 222 223 219 219 211 215 212 213 216 217 219 216 215 219 220 220 220 222 222 221 221 219 217 213 214 215 216 217 223 229 225 225 222 213 224 215 213 216 216 207 203 223 224 254 268 269 242 288 230
245 242 247 248 262 260 258 259 257 256 269 265 260 253 244 234 229 237 242 227 225 222 216 217 212 214 216 220 224 227 229 228 227 233 225 224 225 229 227 222 217 216 210 213 216 216 215 216 215 219 221 219 221 222 224 223 222 217 215 213 218 217 218 216 221 225 220 225 227 220 226 224 228 227 222 198 207 226 219 250 259 285 290 229 278
245 246 245 247 246 255 259 258 264 265 252 247 249 250 249 244 232 236 245 233 229 224 222 221 216 218 217 221 225 227 229 229 230 232 230 227 226 229 223 222 217 212 211 215 218 214 212 214 213 215 218 217 222 221 224 221 218 217 217 218 218 216 215 214 220 224 219 218 227 223 227 224 229 228 208 207 220 214 216 245 254 252 260 281 272
234 238 244 246 245 248 250 255 253 252 255 254 248 243 246 244 240 234 246 236 232 228 227 226 222 221 218 221 223 223 227 227 228 230 231 228 226 228 225 224 218 216 215 217 218 214 212 215 215 218 220 219 218 222 222 220 216 217 218 220 220 222 217 215 222 227 223 225 224 224 222 226 231 220 214 211 213 201 223 227 257 259 220 264 286
236 238 240 243 246 243 246 252 258 254 258 261 262 256 253 253 248 244 252 249 237 236 232 230 230 226 223 224 224 223 227 226 229 227 230 230 230 228 227 223 220 221 219 224 219 214 216 214 215 218 218 219 218 219 221 219 216 218 220 223 225 222 218 217 224 223 225 224 222 221 227 225 230 217 213 220 211 216 221 224 218 257 270 240 263
235 240 246 248 247 252 255 259 265 275 269 264 258 255 253 253 253 251 251 257 247 244 238 235 234 230 227 226 226 224 226 229 233 229 230 228 231 226 229 225 224 226 225 221 219 212 213 213 213 218 219 219 218 219 218 216 215 216 220 223 227 219 220 216 224 223 226 225 224 223 224 231 227 219 214 219 216 217 219 220 205 223 248 276 268
237 239 244 250 256 259 257 269 281 272 268 254 252 252 250 255 257 260 259 256 252 249 244 238 238 234 233 228 228 226 226 226 227 228 228 229 232 231 230 227 226 224 226 218 221 214 214 211 212 216 217 218 218 218 217 216 213 214 218 222 225 221 219 220 224 223 225 224 225 220 223 230 228 220 216 216 218 215 218 217 211 218 225 240 266
235 240 247 253 261 270 279 267 252 254 256 269 269 259 253 252 252 256 261 260 255 250 249 243 239 236 236 232 228 225 225 226 227 230 229 230 231 231 230 229 224 223 222 222 219 215 212 209 214 214 216 215 217 217 216 216 213 215 219 224 226 222 220 223 226 225 227 223 225 222 224 230 228 222 218 216 212 215 214 216 216 221 215 227 238
249 243 250 268 272 271 263 257 254 265 271 260 265 273 272 268 259 252 258 257 256 254 251 251 241 240 237 234 230 228 227 229 229 230 231 230 231 228 226 227 231 225 222 222 217 216 211 212 211 215 214 215 215 217 214 216 211 217 217 225 224 220 220 222 226 225 227 224 225 226 224 231 225 225 220 217 215 211 216 215 219 218 220 224 233
248 248 258 251 254 249 248 258 275 268 264 264 265 272 271 269 273 268 264 262 263 258 255 256 248 240 243 240 238 233 231 228 228 226 227 228 232 229 229 229 227 223 226 221 221 215 214 212 211 214 216 214 213 215 212 214 212 218 218 223 223 217 221 223 228 224 225 222 227 228 226 229 226 226 221 219 219 214 215 216 217 219 223 221 229
265 217 229 235 242 253 262 259 255 263 265 278 279 275 276 281 276 273 272 275 265 259 253 251 252 247 246 243 241 235 234 230 231 228 229 231 232 230 230 229 229 226 220 222 219 218 216 215 212 213 214 214 213 213 211 212 213 218 220 224 224 219 221 225 228 231 224 224 226 228 228 229 224 225 220 220 221 220 214 217 218 220 224 221 220
244 233 235 247 256 271 273 259 258 278 289 285 280 284 287 285 281 285 281 270 271 271 253 255 250 248 247 246 242 238 235 232 232 230 230 233 231 229 228 226 226 228 213 222 217 218 217 215 214 215 214 215 215 214 211 209 212 215 222 222 224 221 223 226 225 233 226 225 226 227 229 228 223 224 221 220 222 222 219 217 217 216 222 221 216
245 240 247 255 265 271 278 283 281 273 274 279 285 284 285 291 299 297 291 283 273 271 273 265 262 255 250 247 243 238 236 236 234 234 232 233 232 232 225 223 227 227 217 219 217 217 217 214 217 217 215 215 215 215 212 210 212 214 219 221 221 219 223 223 225 230 227 225 225 225 229 226 224 225 221 223 221 223 219 221 221 215 222 223 221
262 270 259 247 248 261 279 281 284 286 280 277 277 283 286 290 296 299 294 291 292 283 278 274 270 263 261 262 251 245 242 240 238 239 239 238 235 237 226 226 228 223 223 221 217 218 216 216 217 218 217 218 216 216 214 213 213 214 220 222 220 221 222 224 226 229 227 224 225 225 227 223 224 226 223 222 222 224 222 225 224 219 222 226 224
282 284 287 293 288 273 260 255 258 262 261 265 274 277 278 287 295 292 289 290 291 291 291 282 274 274 270 260 257 249 243 244 242 244 245 247 249 250 239 231 231 229 229 219 219 215 219 216 218 217 218 218 217 214 215 215 216 217 221 222 222 222 223 225 226 227 226 225 226 226 226 222 223 229 227 222 220 223 225 224 224 221 223 226 229
260 263 269 264 252 249 249 245 245 243 247 262 269 270 279 283 283 277 283 294 285 292 290 291 286 280 276 269 267 268 260 258 259 261 262 266 259 249 240 243 232 235 230 224 219 213 216 219 219 220 219 221 218 217 216 216 215 217 220 222 223 224 225 224 226 227 226 225 226 226 225 222 223 227 228 224 223 227 224 224 224 224 223 226 229
303 299 293 301 299 285 280 270 242 237 241 253 259 270 265 260 269 272 265 272 282 282 272 276 277 263 264 261 262 255 260 272 272 274 285 285 274 266 257 248 236 234 230 225 222 219 217 218 221 218 221 220 219 217 217 218 218 218 218 220 223 226 227 225 225 224 225 225 226 226 225 221 225 226 229 226 223 225 222 226 222 222 223 226 230
282 285 285 278 278 291 296 294 301 294 277 256 245 244 257 271 282 287 286 282 274 266 261 262 273 274 257 253 243 240 252 256 263 271 275 275 276 274 262 262 251 242 238 234 228 223 224 216 224 219 224 218 220 218 217 217 218 216 216 220 220 224 226 226 225 224 223 224 224 225 224 223 224 226 228 229 221 224 221 228 222 221 223 225 230
271 267 272 287 293 290 287 292 295 298 296 296 298 301 300 291 273 272 281 272 268 258 248 228 244 258 259 256 253 251 244 254 260 266 267 261 257 257 262 259 252 251 248 244 241 233 228 228 229 227 227 220 220 222 215 211 212 215 215 219 219 221 222 224 225 225 223 223 224 224 224 224 222 226 226 227 223 219 220 226 224 218 223 224 230
270 278 286 287 282 279 279 282 288 289 291 292 293 290 290 290 293 282 264 270 258 258 242 226 231 252 267 271 282 289 288 277 260 251 256 270 278 282 283 276 269 262 260 256 251 244 235 230 229 229 228 225 228 225 222 214 210 211 213 219 221 222 222 224 226 226 226 223 223 223 225 221 221 220 224 227 229 227 224 224 224 215 221 223 227
268 278 280 275 277 280 282 278 274 275 275 279 279 276 277 282 276 281 285 283 273 266 255 235 232 235 246 288 313 308 329 301 288 274 249 229 234 261 279 277 274 273 269 262 251 249 244 239 232 229 226 228 231 228 223 220 218 214 215 219 220 223 220 223 223 224 225 222 223 224 225 221 221 223 223 225 225 227 228 230 234 230 220 215 222
245 252 258 262 265 268 272 273 272 270 271 272 277 276 271 268 273 278 281 300 300 283 280 274 276 275 247 218 217 260 255 253 255 255 251 229 204 200 219 242 265 274 270 283 274 256 254 247 243 239 236 232 233 228 224 225 222 221 217 222 224 224 222 222 222 222 225 222 224 224 225 224 222 219 220 224 227 227 227 229 231 235 238 237 234
232 235 243 253 261 263 263 269 274 273 271 269 266 275 268 258 268 270 294 282 271 278 293 305 307 317 323 282 259 235 242 247 230 229 233 233 210 195 204 205 228 231 268 273 260 265 262 262 253 251 247 244 245 242 242 240 238 233 228 224 233 229 225 224 221 221 221 222 222 225 227 225 227 218 220 226 226 228 230 230 231 234 237 237 241
248 250 248 254 259 264 266 263 268 274 273 272 280 261 269 275 269 275 260 269 256 270 289 302 315 335 341 334 326 258 258 256 264 265 257 228 201 216 212 203 205 212 218 242 256 258 265 262 247 243 250 255 253 257 247 241 237 235 232 224 230 229 228 226 222 220 220 222 221 224 228 229 225 216 214 219 225 230 232 229 233 234 235 238 238
270 259 248 245 249 260 269 277 273 275 285 296 287 258 267 274 257 266 249 213 238 228 301 301 295 305 316 338 349 356 331 306 297 302 307 300 291 274 255 234 191 197 196 220 237 244 247 243 240 230 231 236 243 251 240 238 233 233 237 231 238 238 238 235 229 221 222 221 223 227 231 235 231 225 220 215 223 227 228 228 223 221 222 228 230
262 259 259 255 251 252 259 269 294 323 294 277 268 291 282 266 250 241 272 46 54 70 337 318 317 322 327 327 343 357 5 7 13 25 18 327 324 322 311 334 346 308 280 259 281 253 261 261 267 253 232 242 21 41 43 28 343 265 242 223 229 240 245 257 257 268 251 235 220 223 225 225 224 227 238 229 229 237 239 238 242 247 243 237 237
259 258 264 265 266 274 284 302 303 307 300 295 292 298 275 279 285 323 3 352 33 29 348 325 313 313 309 304 306 51 45 39 48 67 53 41 341 320 330 358 18 16 25 23 13 19 17 23 29 23 35 63 57 26 30 27 22 18 30 69 161 183 200 214 225 205 181 156 129 115 116 123 132 136 74 50 25 30 248 244 244 244 246 242 241
272 290 282 282 296 301 306 314 303 305 299 309 300 287 299 298 320 352 353 1 24 9 345 335 326 325 318 311 306 51 87 82 78 70 50 20 29 322 358 12 51 24 37 35 23 33 34 40 40 41 15 11 1 8 14 15 22 17 10 359 16 91 230 227 268 273 235 64 63 59 60 66 45 342 27 357 339 347 282 253 251 256 266 264 265
263 264 283 301 313 288 277 9 360 337 332 336 350 24 16 360 11 5 9 19 11 345 342 336 329 328 323 323 323 4 66 89 79 70 61 63 52 40 360 18 43 67 61 30 31 38 25 23 17 12 10 18 357 0 2 7 15 9 5 13 29 32 330 303 338 327 1 3 346 352 357 339 312 277 273 263 253 229 257 253 265 269 265 261 258
255 271 250 262 304 20 18 16 1 322 313 345 32 46 58 48 15 19 32 19 352 341 328 325 323 328 344 356 347 1 26 53 70 66 63 56 64 65 56 71 51 67 69 48 38 45 48 26 2 355 359 357 359 347 347 356 5 9 1 7 32 16 311 314 342 341 322 323 322 311 318 306 292 293 311 330 329 306 266 251 236 250 257 266 275
275 269 293 27 29 90 104 51 304 296 331 13 65 64 46 35 38 49 27 344 327 331 342 334 335 345 6 25 25 23 22 24 36 78 90 72 62 80 90 95 105 101 99 80 73 70 73 60 31 12 26 18 7 346 344 353 354 1 4 3 351 356 333 317 309 303 287 291 300 294 297 300 305 319 331 328 323 316 314 308 275 258 248 285 333
244 230 118 106 69 41 29 18 360 360 26 65 84 77 47 27 35 28 352 326 336 345 352 1 358 4 7 16 24 25 42 40 28 47 66 64 51 61 63 81 98 105 94 85 84 89 90 79 68 56 53 47 47 41 17 15 10 352 346 309 273 270 291 308 268 250 260 266 267 267 266 270 278 292 294 291 294 305 316 313 283 277 292 301 290
226 184 122 133 91 63 45 22 359 8 27 61 93 87 79 66 47 1 338 337 335 341 5 20 20 18 18 19 20 22 20 27 43 41 56 60 50 56 52 58 67 70 70 68 62 63 69 64 57 45 39 37 30 32 30 26 19 18 8 3 339 323 319 321 284 277 273 277 282 284 286 291 288 289 290 297 296 292 291 275 276 278 280 283 284
232 190 161 129 109 95 75 44 29 24 27 26 68 92 86 78 48 351 354 0 3 355 352 17 30 25 22 22 18 19 22 25 25 36 60 62 53 54 53 44 41 51 59 60 49 50 56 55 51 41 36 34 30 32 23 22 18 16 19 19 12 2 340 310 306 296 310 312 312 309 308 305 294 291 290 289 288 284 272 270 276 280 281 281 274
169 163 154 137 136 124 109 77 54 47 40 41 32 64 61 48 6 1 14 28 25 17 7 14 16 17 24 17 21 24 22 23 23 32 54 57 60 59 63 38 46 48 49 58 48 47 56 56 53 46 37 35 35 37 33 22 16 7 5 8 13 9 358 350 329 316 315 310 308 309 313 314 312 305 297 293 292 287 279 275 273 272 273 267 259
154 144 145 137 126 118 108 100 73 59 64 60 57 59 61 29 359 6 7 21 32 36 37 31 20 16 10 8 26 29 27 21 26 32 40 36 51 56 67 50 51 49 50 58 55 58 60 56 55 36 29 27 32 43 33 27 25 11 5 357 356 357 344 322 298 283 291 297 299 298 297 295 294 290 288 275 267 267 265 267 273 277 274 262 259
169 169 146 139 135 118 112 105 95 65 73 66 70 65 65 48 31 17 14 19 32 44 49 40 36 23 10 12 29 28 27 28 26 26 35 35 29 36 52 55 49 47 49 50 48 53 57 59 60 49 28 34 50 44 33 24 25 20 12 1 355 348 341 336 323 312 302 296 296 292 281 283 279 278 273 268 268 268 269 263 258 259 260 262 261
178 159 152 135 131 129 123 109 96 76 58 59 53 47 32 31 39 33 32 37 36 31 37 39 34 34 35 22 42 37 43 45 34 29 32 30 28 24 50 55 47 35 51 51 55 52 49 46 48 49 53 59 46 41 26 15 9 14 9 10 359 346 341 329 325 318 317 313 315 312 310 301 287 280 264 262 268 264 262 276 269 260 262 260 264
157 159 149 147 139 122 114 100 89 68 65 59 52 40 21 14 11 10 16 71 76 44 18 14 3 354 2 6 33 44 47 52 49 45 44 42 32 16 33 66 58 43 36 52 64 56 44 32 39 33 26 26 25 21 13 355 3 9 10 360 358 358 344 337 320 314 316 316 324 329 336 343 355 348 347 345 343 339 331 316 306 305 288 280 280
139 114 111 101 93 105 106 98 86 69 63 60 46 35 26 16 8 6 8 39 41 62 59 36 14 2 352 355 9 26 34 36 35 32 42 51 45 52 44 42 35 36 53 59 65 59 41 22 35 35 39 37 17 341 336 360 11 10 4 357 345 339 335 319 308 314 310 307 329 342 339 341 336 342 335 332 332 332 326 326 323 312 310 309 297
143 124 112 111 112 107 107 102 92 77 65 57 49 31 22 13 3 357 8 24 33 54 38 23 11 16 357 344 358 13 21 37 39 29 17 19 24 52 61 46 35 33 44 48 46 42 38 36 32 14 4 14 5 8 15 16 10 5 357 352 345 338 331 325 317 330 28 356 340 349 340 337 327 322 320 322 324 325 325 323 321 324 314 309 308